Preview of NWS' New Version of Forecast
This preview is not operational and should not be used for support decisions.

Regional Weather Roundup (RWR)

Issued by National Weather Service (NWS)

                            
000
ASUS45 KBOI 201310
RWRID 

IDAHO REGIONAL WEATHER ROUNDUP
NATIONAL WEATHER SERVICE BOISE ID
600 AM MST WED FEB 20 2019

NOTE: "FAIR" INDICATES FEW OR NO CLOUDS BELOW 12000 FEET
WITH NO SIGNIFICANT WEATHER AND/OR OBSTRUCTIONS TO VISIBILITY

IDZ012-014-201400-
SOUTHWEST IDAHO

  
CITY           SKY/WX    TMP DP  RH WIND       PRES   REMARKS
BOISE          LGT SNOW  28  25  88 SE8       29.69F FOG     WCI  20  
CALDWELL       LGT SNOW  29  28  96 CALM      29.71F VSB 1            
MOUNTAIN HOME  CLOUDY    21  21 100 E5        29.70F WCI  15          
$$

IDZ016-017-201400-
SOUTHCENTRAL IDAHO

  
CITY           SKY/WX    TMP DP  RH WIND       PRES   REMARKS
BURLEY         LGT SNOW  23  20  88 SW12      29.66F FOG     WCI  12  
JEROME         LGT SNOW  24  23  96 S5        29.67F FOG     WCI  18  
TWIN FALLS     LGT SNOW  25  22  88 SW9       29.67F FOG     WCI  15  
$$

IDZ019>023-201400-
SOUTHEAST IDAHO

  
CITY           SKY/WX    TMP DP  RH WIND       PRES   REMARKS
IDAHO FALLS    LGT SNOW   8   5  87 NW3       29.66S FOG              
POCATELLO      LGT SNOW  15  12  88 N5        29.67F VSB 1   WCI   8  
REXBURG        LGT SNOW  12   9  87 W7        29.64S FOG     WCI   1  
$$

IDZ006-010-011-018-031-032-201400-
CENTRAL IDAHO MOUNTAINS

  
CITY           SKY/WX    TMP DP  RH WIND       PRES   REMARKS
MCCALL         CLOUDY    17  13  84 CALM      29.57F                  
HAILEY         CLOUDY    12   9  85 NW7       29.63S WCI   2          
STANLEY          N/A     10   4  76 CALM      29.56F                  
SALMON         LGT SNOW  18  16  92 CALM      29.65S FOG              
CHALLIS        CLOUDY    16  12  84 CALM      29.59F                  
$$

IDZ002-004-006-007-026-201400-
NORTHERN IDAHO

  
CITY           SKY/WX    TMP DP  RH WIND       PRES   REMARKS
LEWISTON       LGT SNOW  27  23  85 CALM      29.72S FOG              
LOWELL           N/A     28  25  88 CALM      29.75F                  
COEUR D'ALENE  FLURRIES  21  19  92 NE10      29.70F WCI  10          
MULLAN PASS    CLOUDY    14  10  84 CALM      29.49F                  
$$